Location: Unnamed
(47.6264°N, 122.3366°W)
Time: 00:46:06
(UTC-08:00)

CUTE-I - Visible Passes

Search period start: 08 December 2023 00:00
Search period end: 18 December 2023 00:00
Orbit: 808 x 822 km, 98.7° (Epoch: 07 December)

Date Brightness Start Highest point End Pass type
(mag) Time Alt. Az. Time Alt. Az. Time Alt. Az.
08 Dec ? 06:16:09 10° NNE 06:21:26 55° E 06:26:41 10° S visible
08 Dec ? 17:40:59 10° S 17:46:15 70° WSW 17:51:36 10° NNW visible
09 Dec ? 05:54:11 10° NNE 05:59:08 36° E 06:04:02 10° SSE visible
09 Dec ? 17:18:46 10° SSE 17:24:03 79° ENE 17:29:25 10° NNW visible
09 Dec ? 19:01:27 10° SW 19:04:41 16° W 19:07:55 10° NW visible
10 Dec ? 05:32:27 10° NE 05:36:45 24° E 05:41:02 10° SE visible
10 Dec ? 07:11:49 10° N 07:17:02 54° WNW 07:22:15 10° SW visible
10 Dec ? 16:56:48 10° SE 17:01:56 52° ENE 17:07:07 10° N visible
10 Dec ? 18:37:56 10° SSW 18:42:13 25° W 18:46:32 10° NW visible
11 Dec ? 05:11:06 10° NE 05:14:17 16° E 05:17:28 10° SE visible
11 Dec ? 06:49:31 10° NNE 06:54:55 81° WNW 07:00:17 10° SSW visible
11 Dec ? 18:14:56 10° SSW 18:19:50 37° W 18:24:46 10° NNW visible
12 Dec ? 06:27:21 10° NNE 06:32:43 68° ESE 06:38:03 10° S visible
12 Dec ? 17:52:19 10° S 17:57:31 56° W 18:02:48 10° NNW visible
13 Dec ? 06:05:18 10° NNE 06:10:26 44° E 06:15:33 10° S visible
13 Dec ? 17:29:58 10° SSE 17:35:17 85° WSW 17:40:40 10° NNW visible
13 Dec ? 19:13:46 10° WSW 19:16:05 13° W 19:18:24 10° WNW visible
14 Dec ? 05:43:25 10° NE 05:48:06 29° E 05:52:44 10° SSE visible
14 Dec ? 17:07:53 10° SSE 17:13:07 64° ENE 17:18:26 10° N visible
14 Dec ? 18:49:45 10° SW 18:53:34 20° W 18:57:26 10° NW visible
15 Dec ? 05:21:49 10° NE 05:25:40 20° E 05:29:29 10° SE visible
15 Dec ? 07:00:48 10° N 07:06:08 66° WNW 07:11:26 10° SSW visible
15 Dec ? 16:46:03 10° SE 16:51:02 43° ENE 16:56:04 10° N visible
15 Dec ? 18:26:32 10° SSW 18:31:09 30° W 18:35:49 10° NNW visible
16 Dec ? 05:00:54 10° ENE 05:03:10 13° E 05:05:25 10° ESE visible
16 Dec ? 06:38:33 10° NNE 06:43:58 83° ESE 06:49:20 10° SSW visible
16 Dec ? 18:03:43 10° S 18:08:48 45° W 18:13:56 10° NNW visible
17 Dec ? 06:16:26 10° NNE 06:21:44 55° E 06:26:58 10° S visible
17 Dec ? 17:41:14 10° S 17:46:31 70° WSW 17:51:53 10° NNW visible
